Location: Montclair
(37.8322°N, 122.2092°W)
Time: 16:09:46
(UTC+00:00)

Cosmos 2219 Rocket - Pass Details

Date: 08 September 2024
Orbit: 827 x 845 km, 71.0° (Epoch: 07 October)

Event Time Altitude Azimuth Distance (km) Brightness Sun altitude
Rises 12:47:46 0° 341° (NNW) 3,399 5.3 -11.9°
Reaches altitude 10° 12:50:16 10° 345° (NNW) 2,458 4.6 -11.5°
Maximum altitude 12:55:50 59° 65° (ENE) 961 2.9 -10.4°
Drops below altitude 10° 13:01:20 10° 145° (SE) 2,432 4.9 -9.4°
Sets 13:03:47 0° 149° (SSE) 3,359 5.6 -8.9°
